Вернуться в каталог

COSMOS 374 DEB

АктивенUNKNOWN
NORAD 5076·DEBRIS·🇷🇺 Russia

Запущен Oct 23, 1970 с Baikonur Cosmodrome

Loading…

Ближайшие Пролёты

TLE

Source: Space-Track
1 05076U 70089AP  26229.70254619  .00000211  00000-0  14186-3 0  9994
2 05076  62.8080 344.2643 0966694 215.6893 137.5633 12.87496576603613

Отслеживайте COSMOS 374 DEB в реальном времени с AllMySat

Download on the App Store